Home   Weather   Kilimanjaro   Past weeks
Flag for Tanzania

Past Weather in Kilimanjaro, Tanzania — Yesterday and Last 2 Weeks

Now
59 °F

Partly sunny.


Feels Like: 57 °F
Forecast: 67 / 56 °F
Wind: 10 mph from East

Location: Arusha Airport

Current Time: Jul 16, 2019 at 7:45:36 am

Latest Report: Jul 16, 2019 at 7:00 am


Visibility: N/A

Pressure: 30.15 "Hg

Humidity: 82%

Dew Point: 54 °F

Location of KilimanjaroLocation

Past Weather in Kilimanjaro — Graph

°F

Kilimanjaro Temperature Yesterday

Maximum temperature yesterday: 73 °F (at 5:00 pm)
Minimum temperature yesterday: 59 °F (at 7:00 am)
Average temperature yesterday: 65 °F

High & Low Weather Summary for the Past Weeks

 TemperatureHumidityPressure
High77 °F (Jul 9, 5:00 pm)100% (Jul 2, 4:00 am)30.21 "Hg (Jul 2, 4:00 am)
Low55 °F (Jul 14, 6:00 am)50% (Jul 15, 3:00 pm)30.04 "Hg (Jul 11, 4:00 pm)
Average65 °F82%30.12 "Hg
* Reported Jul 1 12:00 pm — Jul 16 6:00 am, Kilimanjaro. Weather by CustomWeather, © 2019

Note: Actual official high and low records may vary slightly from our data, if they occured in-between our weather recording intervals... More about our weather records

Advertising

Kilimanjaro Weather History for the Previous 24 Hours

Scroll right to see more
 ConditionsComfort  
Time TempWeatherWind HumidityBarometerVisibility
6:00 am
Tue, Jul 16
59 °FPassing clouds.14 mph88%30.15 "HgN/A
5:00 am59 °FPassing clouds.12 mph94%30.15 "HgN/A
4:00 am59 °FPassing clouds.14 mph94%30.12 "HgN/A
3:00 am59 °FPassing clouds.12 mph88%30.12 "HgN/A
2:00 am61 °FPassing clouds.8 mph72%30.12 "HgN/A
1:00 am61 °FPassing clouds.9 mph72%30.15 "HgN/A
12:00 am61 °FPassing clouds.14 mph77%30.15 "HgN/A
11:00 pm
Mon, Jul 15
61 °FPassing clouds.16 mph83%30.15 "HgN/A
10:00 pm63 °FPassing clouds.14 mph73%30.15 "HgN/A
9:00 pm64 °FPassing clouds.12 mph68%30.12 "HgN/A
8:00 pm64 °FPassing clouds.9 mph68%30.09 "HgN/A
7:00 pm66 °FPassing clouds.3 mph68%30.09 "HgN/A
6:00 pm72 °FPassing clouds.8 mph53%30.07 "HgN/A
5:00 pm73 °FScattered clouds.7 mph50%30.07 "HgN/A
4:00 pm72 °FScattered clouds.15 mph50%30.07 "HgN/A
3:00 pm72 °FPartly sunny.9 mph50%30.09 "HgN/A
2:00 pm70 °FPartly sunny.16 mph64%30.09 "HgN/A
1:00 pm70 °FPartly sunny.10 mph64%30.15 "HgN/A
12:00 pm66 °FPartly sunny.7 mph73%30.15 "HgN/A
8:00 am61 °FPartly sunny.17 mph94%30.15 "HgN/A
7:00 am59 °FPartly sunny.10 mph100%30.12 "HgN/A
Weather by CustomWeather, © 2019

See weather overview

LIVE PARTIAL LUNAR ECLIPSE – Watch the eclipse as it happens